,,PA_Meas_PMT16A,,PR_Meas_QMR101_102,,RH_Meas_QMH101,,SR_Meas_QMS101,,TA_Meas_QMH101,,GenWind,,GenWind,
time,status,PA,status,PR,status,RH,status,SR,status,TA,status,DirAvg,status,SpdAvg,
2009-11-30, 00:00:04,VALID,919.366,VALID,0,VALID,97.229,VALID,0,VALID,19.4673,VALID,162,VALID,0.520703,
2009-11-30, 00:01:04,VALID,919.361,VALID,0,VALID,97.2367,VALID,0,VALID,19.4673,VALID,162,VALID,0.651172,
2009-11-30, 00:02:04,VALID,919.344,VALID,0,VALID,97.229,VALID,0,VALID,19.4868,VALID,162,VALID,0.714844,
2009-11-30, 00:03:04,VALID,919.338,VALID,0,VALID,97.229,VALID,0,VALID,19.4868,VALID,162,VALID,0.570703,
2009-11-30, 00:04:04,VALID,919.324,VALID,0,VALID,97.2214,VALID,0,VALID,19.4868,VALID,162,VALID,0.534766,
2009-11-30, 00:05:04,VALID,919.31,VALID,0,VALID,97.1681,VALID,0,VALID,19.4658,VALID,161,VALID,0.729297,
2009-11-30, 00:06:04,VALID,919.306,VALID,0,VALID,97.1528,VALID,0,VALID,19.4868,VALID,162,VALID,0.787109,
2009-11-30, 00:07:04,VALID,919.291,VALID,0,VALID,97.1757,VALID,0,VALID,19.5063,VALID,162,VALID,0.795313,
2009-11-30, 00:08:04,VALID,919.233,VALID,0,VALID,97.2062,VALID,0,VALID,19.5258,VALID,162,VALID,0.986719,
2009-11-30, 00:09:04,VALID,919.258,VALID,0,VALID,97.1833,VALID,0,VALID,19.5258,VALID,162,VALID,0.744141,
2009-11-30, 00:10:04,VALID,919.25,VALID,0,VALID,97.1833,VALID,0,VALID,19.5258,VALID,162,VALID,1.0418,
2009-11-30, 00:11:04,VALID,919.232,VALID,0,VALID,97.1986,VALID,0,VALID,19.5453,VALID,162,VALID,0.655078,
2009-11-30, 00:12:04,VALID,919.22,VALID,0,VALID,97.1986,VALID,0,VALID,19.5258,VALID,161,VALID,0.91875,
2009-11-30, 00:13:04,VALID,919.217,VALID,0,VALID,97.2062,VALID,0,VALID,19.5258,VALID,162,VALID,0.726172,
2009-11-30, 00:14:04,VALID,919.234,VALID,0,VALID,97.1986,VALID,0,VALID,19.5048,VALID,162,VALID,1.06094,
2009-11-30, 00:15:04,VALID,919.212,VALID,0,VALID,97.2214,VALID,0,VALID,19.5258,VALID,161,VALID,0.515234,
2009-11-30, 00:16:04,VALID,919.196,VALID,0,VALID,97.2214,VALID,0,VALID,19.5243,VALID,161,VALID,1.07148,
2009-11-30, 00:17:04,VALID,919.172,VALID,0,VALID,97.2367,VALID,0,VALID,19.5453,VALID,161,VALID,0.892969,
2009-11-30, 00:18:04,VALID,919.176,VALID,0,VALID,97.2519,VALID,0,VALID,19.5063,VALID,160,VALID,1.0043,
2009-11-30, 00:19:04,VALID,919.164,VALID,0,VALID,97.2595,VALID,0,VALID,19.5063,VALID,160,VALID,0.69375,
2009-11-30, 00:20:04,VALID,919.174,VALID,0,VALID,97.2824,VALID,0,VALID,19.5258,VALID,160,VALID,0.768359,
2009-11-30, 00:21:04,VALID,919.152,VALID,0,VALID,97.3129,VALID,0,VALID,19.5258,VALID,160,VALID,0.561719,
2009-11-30, 00:22:04,VALID,919.149,VALID,0,VALID,97.3205,VALID,0,VALID,19.5258,VALID,160,VALID,0.0535156,
2009-11-30, 00:23:04,VALID,919.161,VALID,0,VALID,97.3053,VALID,0,VALID,19.5258,VALID,160,VALID,0.505859,
2009-11-30, 00:24:04,VALID,919.122,VALID,0,VALID,97.3205,VALID,0,VALID,19.5258,VALID,160,VALID,0.750391,
2009-11-30, 00:25:04,VALID,919.116,VALID,0,VALID,97.3281,VALID,0,VALID,19.5258,VALID,125,VALID,0.967578,
2009-11-30, 00:26:04,VALID,919.12,VALID,0,VALID,97.3281,VALID,0,VALID,19.5258,VALID,124,VALID,0.817578,
2009-11-30, 00:27:04,VALID,919.095,VALID,0,VALID,97.351,VALID,0,VALID,19.5258,VALID,124,VALID,1.03789,
2009-11-30, 00:28:04,VALID,919.116,VALID,0,VALID,97.3663,VALID,0,VALID,19.5063,VALID,124,VALID,0.922266,
2009-11-30, 00:29:04,VALID,919.079,VALID,0,VALID,97.3815,VALID,0,VALID,19.5258,VALID,124,VALID,1.01836,
2009-11-30, 00:30:04,VALID,919.072,VALID,0,VALID,97.3663,VALID,0,VALID,19.5063,VALID,124,VALID,0.969922,
2009-11-30, 00:31:04,VALID,919.065,VALID,0,VALID,97.3968,VALID,0,VALID,19.5063,VALID,124,VALID,0.946875,
2009-11-30, 00:32:04,VALID,919.061,VALID,0,VALID,97.3891,VALID,0,VALID,19.4658,VALID,124,VALID,0.828125,
2009-11-30, 00:33:04,VALID,919.038,VALID,0,VALID,97.4044,VALID,0,VALID,19.4868,VALID,124,VALID,0.661328,
2009-11-30, 00:34:04,VALID,919.046,VALID,0,VALID,97.3891,VALID,0,VALID,19.4868,VALID,124,VALID,0.750781,
2009-11-30, 00:35:04,VALID,919.06,VALID,0,VALID,97.3891,VALID,0,VALID,19.4868,VALID,124,VALID,0.881641,
2009-11-30, 00:36:04,VALID,919.049,VALID,0,VALID,97.3968,VALID,0,VALID,19.4673,VALID,124,VALID,0.710547,
2009-11-30, 00:37:04,VALID,919.042,VALID,0,VALID,97.412,VALID,0,VALID,19.4868,VALID,124,VALID,0.438281,
2009-11-30, 00:38:04,VALID,919.051,VALID,0,VALID,97.4349,VALID,0,VALID,19.4463,VALID,124,VALID,0.455469,
2009-11-30, 00:39:04,VALID,919.044,VALID,0,VALID,97.3968,VALID,0,VALID,19.4868,VALID,124,VALID,0.641797,
2009-11-30, 00:40:04,VALID,919.01,VALID,0,VALID,97.3891,VALID,0,VALID,19.4673,VALID,124,VALID,0.701172,
2009-11-30, 00:41:04,VALID,918.989,VALID,0,VALID,97.4044,VALID,0,VALID,19.4478,VALID,124,VALID,0.907812,
2009-11-30, 00:42:04,VALID,918.953,VALID,0,VALID,97.3968,VALID,0,VALID,19.4478,VALID,124,VALID,0.585156,
2009-11-30, 00:43:04,VALID,918.98,VALID,0,VALID,97.3739,VALID,0,VALID,19.4268,VALID,124,VALID,1.00352,
2009-11-30, 00:44:04,VALID,918.935,VALID,0,VALID,97.4044,VALID,0,VALID,19.4673,VALID,124,VALID,0.850781,
2009-11-30, 00:45:04,VALID,918.951,VALID,0,VALID,97.3815,VALID,0,VALID,19.4478,VALID,124,VALID,0.674219,
2009-11-30, 00:46:04,VALID,918.948,VALID,0,VALID,97.3968,VALID,0,VALID,19.4673,VALID,124,VALID,0.715234,
2009-11-30, 00:47:04,VALID,918.913,VALID,0,VALID,97.3434,VALID,0,VALID,19.4673,VALID,124,VALID,0.897656,
2009-11-30, 00:48:04,VALID,918.878,VALID,0,VALID,97.3663,VALID,0,VALID,19.4673,VALID,124,VALID,0.897656,
2009-11-30, 00:49:04,VALID,918.864,VALID,0,VALID,97.3739,VALID,0,VALID,19.4868,VALID,124,VALID,0.741406,
2009-11-30, 00:50:04,VALID,918.843,VALID,0,VALID,97.3586,VALID,0,VALID,19.4673,VALID,124,VALID,0.817578,
2009-11-30, 00:51:04,VALID,918.833,VALID,0,VALID,97.3815,VALID,0,VALID,19.4868,VALID,124,VALID,0.632031,
2009-11-30, 00:52:04,VALID,918.812,VALID,0,VALID,97.3815,VALID,0,VALID,19.4868,VALID,124,VALID,0.330469,
2009-11-30, 00:53:04,VALID,918.816,VALID,0,VALID,97.3968,VALID,0,VALID,19.4868,VALID,124,VALID,0.716797,
2009-11-30, 00:54:04,VALID,918.763,VALID,0,VALID,97.3968,VALID,0,VALID,19.4658,VALID,124,VALID,0.864844,
2009-11-30, 00:55:04,VALID,918.772,VALID,0,VALID,97.4044,VALID,0,VALID,19.4658,VALID,124,VALID,0.507422,
2009-11-30, 00:56:04,VALID,918.74,VALID,0,VALID,97.4044,VALID,0,VALID,19.4868,VALID,124,VALID,0.491797,
2009-11-30, 00:57:04,VALID,918.726,VALID,0,VALID,97.412,VALID,0,VALID,19.4868,VALID,124,VALID,0.360938,
2009-11-30, 00:58:04,VALID,918.72,VALID,0,VALID,97.4273,VALID,0,VALID,19.4868,VALID,124,VALID,0.361328,
2009-11-30, 00:59:04,VALID,918.691,VALID,0,VALID,97.4349,VALID,0,VALID,19.4868,VALID,124,VALID,0.291797,
2009-11-30, 01:00:04,VALID,918.687,VALID,0,VALID,97.4349,VALID,0.107441,VALID,19.4853,VALID,124,VALID,0.819141,
2009-11-30, 01:01:04,VALID,918.668,VALID,0,VALID,97.4349,VALID,0.107441,VALID,19.4853,VALID,124,VALID,0.399609,
2009-11-30, 01:02:04,VALID,918.685,VALID,0,VALID,97.4654,VALID,0.107441,VALID,19.4853,VALID,124,VALID,0.473437,
2009-11-30, 01:03:04,VALID,918.661,VALID,0,VALID,97.4273,VALID,0.107441,VALID,19.4658,VALID,124,VALID,0.464844,
2009-11-30, 01:04:04,VALID,918.657,VALID,0,VALID,97.4425,VALID,0.107441,VALID,19.4658,VALID,124,VALID,0.450391,
2009-11-30, 01:05:04,VALID,918.661,VALID,0,VALID,97.4196,VALID,0.107441,VALID,19.4449,VALID,124,VALID,0.563281,
2009-11-30, 01:06:04,VALID,918.635,VALID,0,VALID,97.4349,VALID,0.107441,VALID,19.4463,VALID,124,VALID,0.7625,
2009-11-30, 01:07:04,VALID,918.615,VALID,0,VALID,97.4577,VALID,0.107441,VALID,19.4449,VALID,124,VALID,0.654297,
2009-11-30, 01:08:04,VALID,918.595,VALID,0,VALID,97.4654,VALID,0.107441,VALID,19.4463,VALID,124,VALID,0.532031,
2009-11-30, 01:09:04,VALID,918.585,VALID,0,VALID,97.4577,VALID,0.107441,VALID,19.4658,VALID,124,VALID,0.344531,
2009-11-30, 01:10:04,VALID,918.594,VALID,0,VALID,97.473,VALID,0.107441,VALID,19.4644,VALID,124,VALID,0.667578,
2009-11-30, 01:11:04,VALID,918.563,VALID,0,VALID,97.4654,VALID,0.107441,VALID,19.4658,VALID,124,VALID,0.558203,
2009-11-30, 01:12:04,VALID,918.558,VALID,0,VALID,97.4577,VALID,0.107441,VALID,19.4463,VALID,124,VALID,0.759766,
2009-11-30, 01:13:04,VALID,918.536,VALID,0,VALID,97.4501,VALID,0.107441,VALID,19.4463,VALID,124,VALID,0.53125,
2009-11-30, 01:14:04,VALID,918.524,VALID,0,VALID,97.4196,VALID,0.107441,VALID,19.4463,VALID,124,VALID,0.639063,
2009-11-30, 01:15:04,VALID,918.518,VALID,0,VALID,97.4273,VALID,0,VALID,19.4283,VALID,124,VALID,0.571094,
2009-11-30, 01:16:04,VALID,918.503,VALID,0,VALID,97.3739,VALID,0,VALID,19.4283,VALID,124,VALID,0.914453,
2009-11-30, 01:17:04,VALID,918.515,VALID,0,VALID,97.3815,VALID,0,VALID,19.3893,VALID,124,VALID,0.884375,
2009-11-30, 01:18:04,VALID,918.529,VALID,0,VALID,97.3663,VALID,0,VALID,19.3893,VALID,124,VALID,0.787891,
2009-11-30, 01:19:04,VALID,918.52,VALID,0,VALID,97.351,VALID,0,VALID,19.3698,VALID,124,VALID,0.501562,
2009-11-30, 01:20:04,VALID,918.493,VALID,0,VALID,97.3586,VALID,0,VALID,19.3489,VALID,124,VALID,0.399609,
2009-11-30, 01:21:04,VALID,918.485,VALID,0,VALID,97.351,VALID,0,VALID,19.3893,VALID,124,VALID,0.58125,
2009-11-30, 01:22:04,VALID,918.465,VALID,0,VALID,97.3281,VALID,0,VALID,19.3698,VALID,124,VALID,0.216016,
2009-11-30, 01:23:04,VALID,918.47,VALID,0,VALID,97.3205,VALID,0,VALID,19.3503,VALID,124,VALID,0.701953,
2009-11-30, 01:24:04,VALID,918.463,VALID,0,VALID,97.3281,VALID,0,VALID,19.3893,VALID,124,VALID,0.191016,
2009-11-30, 01:25:04,VALID,918.468,VALID,0,VALID,97.3129,VALID,0,VALID,19.3698,VALID,124,VALID,0.421484,
2009-11-30, 01:26:04,VALID,918.444,VALID,0,VALID,97.3129,VALID,0,VALID,19.3698,VALID,124,VALID,0.357812,
2009-11-30, 01:27:04,VALID,918.453,VALID,0,VALID,97.3358,VALID,0,VALID,19.3893,VALID,124,VALID,0.353516,
2009-11-30, 01:28:04,VALID,918.427,VALID,0,VALID,97.2748,VALID,0,VALID,19.3893,VALID,124,VALID,0,
2009-11-30, 01:29:04,VALID,918.388,VALID,0,VALID,97.2519,VALID,0,VALID,19.3503,VALID,124,VALID,0.51875,
2009-11-30, 01:30:04,VALID,918.396,VALID,0,VALID,97.2214,VALID,0,VALID,19.3503,VALID,124,VALID,0.536719,
2009-11-30, 01:31:04,VALID,918.411,VALID,0,VALID,97.2138,VALID,0,VALID,19.3308,VALID,124,VALID,0.794141,
2009-11-30, 01:32:04,VALID,918.434,VALID,0,VALID,97.1986,VALID,0,VALID,19.3294,VALID,124,VALID,0.478516,
2009-11-30, 01:33:04,VALID,918.387,VALID,0,VALID,97.2214,VALID,0,VALID,19.3698,VALID,124,VALID,0.111719,
2009-11-30, 01:34:04,VALID,918.402,VALID,0,VALID,97.1909,VALID,0,VALID,19.3489,VALID,124,VALID,0.476563,
2009-11-30, 01:35:04,VALID,918.388,VALID,0,VALID,97.1757,VALID,0,VALID,19.3698,VALID,124,VALID,0.473437,
2009-11-30, 01:36:04,VALID,918.398,VALID,0,VALID,97.1452,VALID,0,VALID,19.3503,VALID,124,VALID,0.759375,
2009-11-30, 01:37:04,VALID,918.371,VALID,0,VALID,97.1452,VALID,0,VALID,19.3698,VALID,124,VALID,0.65,
2009-11-30, 01:38:04,VALID,918.348,VALID,0,VALID,97.0842,VALID,0,VALID,19.3489,VALID,124,VALID,0.537109,
2009-11-30, 01:39:04,VALID,918.355,VALID,0,VALID,97.0385,VALID,0,VALID,19.3308,VALID,124,VALID,0.542969,
2009-11-30, 01:40:04,VALID,918.354,VALID,0,VALID,97.0461,VALID,0,VALID,19.3294,VALID,124,VALID,0.330469,
2009-11-30, 01:41:04,VALID,918.369,VALID,0,VALID,97.0461,VALID,0,VALID,19.3503,VALID,124,VALID,0,
2009-11-30, 01:42:04,VALID,918.338,VALID,0,VALID,97.0308,VALID,0,VALID,19.3308,VALID,124,VALID,0.44375,
2009-11-30, 01:43:04,VALID,918.32,VALID,0,VALID,97.0461,VALID,0,VALID,19.3489,VALID,124,VALID,0.386719,
2009-11-30, 01:44:04,VALID,918.317,VALID,0,VALID,97.0232,VALID,0,VALID,19.3489,VALID,124,VALID,0.325781,
2009-11-30, 01:45:04,VALID,918.27,VALID,0,VALID,97.0003,VALID,0,VALID,19.3503,VALID,124,VALID,0.508203,
2009-11-30, 01:46:04,VALID,918.274,VALID,0,VALID,97.0003,VALID,0,VALID,19.3698,VALID,124,VALID,0.359375,
2009-11-30, 01:47:04,VALID,918.248,VALID,0,VALID,96.9698,VALID,0,VALID,19.3294,VALID,124,VALID,0.407422,
2009-11-30, 01:48:04,VALID,918.249,VALID,0,VALID,96.9089,VALID,0,VALID,19.3294,VALID,124,VALID,0.533203,
2009-11-30, 01:49:04,VALID,918.23,VALID,0,VALID,96.9012,VALID,0,VALID,19.3308,VALID,124,VALID,0.594922,
2009-11-30, 01:50:04,VALID,918.237,VALID,0,VALID,96.8784,VALID,0,VALID,19.3308,VALID,124,VALID,0.442578,
2009-11-30, 01:51:04,VALID,918.225,VALID,0,VALID,96.8631,VALID,0,VALID,19.3308,VALID,124,VALID,0.586719,
2009-11-30, 01:52:04,VALID,918.193,VALID,0,VALID,96.8326,VALID,0,VALID,19.3113,VALID,124,VALID,0.335938,
2009-11-30, 01:53:04,VALID,918.163,VALID,0,VALID,96.825,VALID,0,VALID,19.3113,VALID,124,VALID,0.490625,
2009-11-30, 01:54:04,VALID,918.182,VALID,0,VALID,96.8174,VALID,0,VALID,19.3113,VALID,124,VALID,0.546094,
2009-11-30, 01:55:04,VALID,918.171,VALID,0,VALID,96.8021,VALID,0,VALID,19.3113,VALID,124,VALID,0.305859,
2009-11-30, 01:56:04,VALID,918.156,VALID,0,VALID,96.7411,VALID,0,VALID,19.2918,VALID,124,VALID,0.546484,
2009-11-30, 01:57:04,VALID,918.118,VALID,0,VALID,96.7335,VALID,0,VALID,19.2918,VALID,124,VALID,0.523828,
2009-11-30, 01:58:04,VALID,918.118,VALID,0,VALID,96.7259,VALID,0,VALID,19.2918,VALID,124,VALID,0.549609,
2009-11-30, 01:59:04,VALID,918.086,VALID,0,VALID,96.764,VALID,0,VALID,19.2723,VALID,124,VALID,0.966406,
2009-11-30, 02:00:04,VALID,918.083,VALID,0,VALID,96.7793,VALID,0,VALID,19.2723,VALID,124,VALID,0.784375,
2009-11-30, 02:01:04,VALID,918.058,VALID,0,VALID,96.7564,VALID,0,VALID,19.2709,VALID,124,VALID,0.90625,
2009-11-30, 02:02:04,VALID,918.039,VALID,0,VALID,96.7716,VALID,0,VALID,19.2918,VALID,124,VALID,0.879297,
2009-11-30, 02:03:04,VALID,918.064,VALID,0,VALID,96.7869,VALID,0,VALID,19.2918,VALID,124,VALID,0.650391,
2009-11-30, 02:04:04,VALID,918.031,VALID,0,VALID,96.825,VALID,0,VALID,19.2904,VALID,124,VALID,1.1082,
2009-11-30, 02:05:04,VALID,918.027,VALID,0,VALID,96.7945,VALID,0,VALID,19.2918,VALID,124,VALID,0.971094,
2009-11-30, 02:06:04,VALID,917.967,VALID,0,VALID,96.7488,VALID,0,VALID,19.2918,VALID,124,VALID,0.802734,
2009-11-30, 02:07:04,VALID,917.958,VALID,0,VALID,96.8098,VALID,0,VALID,19.2904,VALID,165,VALID,0.856641,
2009-11-30, 02:08:04,VALID,917.955,VALID,0,VALID,96.8174,VALID,0,VALID,19.2904,VALID,165,VALID,1.13164,
2009-11-30, 02:09:04,VALID,917.934,VALID,0,VALID,96.8479,VALID,0,VALID,19.3308,VALID,165,VALID,0.766016,
2009-11-30, 02:10:04,VALID,917.912,VALID,0,VALID,96.8784,VALID,0,VALID,19.2904,VALID,165,VALID,0.940625,
2009-11-30, 02:11:04,VALID,917.922,VALID,0,VALID,96.9089,VALID,0.107441,VALID,19.3308,VALID,165,VALID,1.20547,
2009-11-30, 02:12:04,VALID,917.889,VALID,0,VALID,96.9394,VALID,0,VALID,19.3308,VALID,165,VALID,1.06641,
2009-11-30, 02:13:04,VALID,917.881,VALID,0,VALID,96.9851,VALID,0,VALID,19.3308,VALID,165,VALID,0.851172,
2009-11-30, 02:14:04,VALID,917.914,VALID,0,VALID,96.9775,VALID,0,VALID,19.3113,VALID,165,VALID,1.31016,
2009-11-30, 02:15:04,VALID,917.893,VALID,0,VALID,97.0156,VALID,0,VALID,19.3113,VALID,165,VALID,0.96875,
2009-11-30, 02:16:04,VALID,917.896,VALID,0,VALID,97.0385,VALID,0,VALID,19.2709,VALID,165,VALID,0.709766,
2009-11-30, 02:17:04,VALID,917.907,VALID,0,VALID,97.0461,VALID,0,VALID,19.3113,VALID,165,VALID,0.2625,
2009-11-30, 02:18:04,VALID,917.887,VALID,0,VALID,97.0461,VALID,0,VALID,19.3113,VALID,165,VALID,0.423438,
2009-11-30, 02:19:04,VALID,917.889,VALID,0,VALID,97.0385,VALID,0,VALID,19.2918,VALID,165,VALID,0.689453,
2009-11-30, 02:20:04,VALID,917.868,VALID,0,VALID,97.0385,VALID,0,VALID,19.3113,VALID,165,VALID,0.557031,
2009-11-30, 02:21:04,VALID,917.875,VALID,0,VALID,97.0461,VALID,0,VALID,19.2918,VALID,165,VALID,0.789063,
2009-11-30, 02:22:04,VALID,917.868,VALID,0,VALID,97.0308,VALID,0,VALID,19.2918,VALID,165,VALID,0.728906,
2009-11-30, 02:23:04,VALID,917.817,VALID,0,VALID,97.0385,VALID,0,VALID,19.2918,VALID,165,VALID,0.485938,
2009-11-30, 02:24:04,VALID,917.829,VALID,0,VALID,97.008,VALID,0.107441,VALID,19.2918,VALID,165,VALID,0.439063,
2009-11-30, 02:25:04,VALID,917.831,VALID,0,VALID,96.9546,VALID,0,VALID,19.2528,VALID,165,VALID,0.512109,
2009-11-30, 02:26:04,VALID,917.839,VALID,0,VALID,96.9317,VALID,0,VALID,19.2319,VALID,165,VALID,0.4625,
2009-11-30, 02:27:04,VALID,917.816,VALID,0,VALID,96.9394,VALID,0,VALID,19.2723,VALID,165,VALID,0.720703,
2009-11-30, 02:28:04,VALID,917.818,VALID,0,VALID,96.9317,VALID,0,VALID,19.2528,VALID,165,VALID,0.569531,
2009-11-30, 02:29:04,VALID,917.815,VALID,0,VALID,96.8936,VALID,0,VALID,19.2723,VALID,165,VALID,0.769141,
2009-11-30, 02:30:04,VALID,917.787,VALID,0,VALID,96.8555,VALID,0,VALID,19.2528,VALID,165,VALID,1.05859,
2009-11-30, 02:31:04,VALID,917.776,VALID,0,VALID,96.8936,VALID,0,VALID,19.2723,VALID,164,VALID,0.603906,
2009-11-30, 02:32:04,VALID,917.753,VALID,0,VALID,96.825,VALID,0,VALID,19.2723,VALID,164,VALID,0.430078,
2009-11-30, 02:33:04,VALID,917.745,VALID,0,VALID,96.8174,VALID,0,VALID,19.2918,VALID,164,VALID,0.758594,
2009-11-30, 02:34:04,VALID,917.744,VALID,0,VALID,96.7945,VALID,0,VALID,19.2918,VALID,164,VALID,0.40625,
2009-11-30, 02:35:04,VALID,917.753,VALID,0,VALID,96.8021,VALID,0,VALID,19.2904,VALID,164,VALID,0.392969,
2009-11-30, 02:36:04,VALID,917.736,VALID,0,VALID,96.8098,VALID,0,VALID,19.3113,VALID,164,VALID,0.213672,
2009-11-30, 02:37:04,VALID,917.724,VALID,0,VALID,96.7869,VALID,0.107441,VALID,19.2904,VALID,164,VALID,0.748828,
2009-11-30, 02:38:04,VALID,917.707,VALID,0,VALID,96.7564,VALID,0,VALID,19.3113,VALID,164,VALID,0.686328,
2009-11-30, 02:39:04,VALID,917.697,VALID,0,VALID,96.7411,VALID,0,VALID,19.2904,VALID,164,VALID,0.594531,
2009-11-30, 02:40:04,VALID,917.686,VALID,0,VALID,96.7107,VALID,0,VALID,19.3113,VALID,164,VALID,0.492578,
2009-11-30, 02:41:04,VALID,917.682,VALID,0,VALID,96.6878,VALID,0,VALID,19.3323,VALID,164,VALID,0.834766,
2009-11-30, 02:42:04,VALID,917.654,VALID,0,VALID,96.6649,VALID,0,VALID,19.3308,VALID,164,VALID,0.522266,
2009-11-30, 02:43:04,VALID,917.666,VALID,0,VALID,96.6954,VALID,0,VALID,19.3503,VALID,164,VALID,0.389062,
2009-11-30, 02:44:04,VALID,917.678,VALID,0,VALID,96.7259,VALID,0,VALID,19.3698,VALID,164,VALID,0.490625,
2009-11-30, 02:45:04,VALID,917.634,VALID,0,VALID,96.7259,VALID,0,VALID,19.3503,VALID,164,VALID,0.231641,
2009-11-30, 02:46:04,VALID,917.635,VALID,0,VALID,96.7335,VALID,0,VALID,19.3489,VALID,164,VALID,0.287891,
2009-11-30, 02:47:04,VALID,917.625,VALID,0,VALID,96.6802,VALID,0,VALID,19.3698,VALID,164,VALID,0.385938,
2009-11-30, 02:48:04,VALID,917.603,VALID,0,VALID,96.6802,VALID,0,VALID,19.3503,VALID,164,VALID,0.162109,
2009-11-30, 02:49:04,VALID,917.614,VALID,0,VALID,96.7564,VALID,0,VALID,19.3893,VALID,164,VALID,0.0929687,
2009-11-30, 02:50:04,VALID,917.607,VALID,0,VALID,96.7564,VALID,0,VALID,19.3893,VALID,164,VALID,0.269531,
2009-11-30, 02:51:04,VALID,917.616,VALID,0,VALID,96.8021,VALID,0,VALID,19.3893,VALID,164,VALID,0.272266,
2009-11-30, 02:52:04,VALID,917.588,VALID,0,VALID,96.8403,VALID,0,VALID,19.3893,VALID,164,VALID,0.0558594,
2009-11-30, 02:53:04,VALID,917.569,VALID,0,VALID,96.8403,VALID,0,VALID,19.3893,VALID,164,VALID,0,
2009-11-30, 02:54:04,VALID,917.547,VALID,0,VALID,96.8784,VALID,0,VALID,19.3893,VALID,164,VALID,0,
2009-11-30, 02:55:04,VALID,917.541,VALID,0,VALID,96.9012,VALID,0,VALID,19.3893,VALID,164,VALID,0.435547,
2009-11-30, 02:56:04,VALID,917.543,VALID,0,VALID,96.8555,VALID,0,VALID,19.3698,VALID,164,VALID,0.478125,
2009-11-30, 02:57:04,VALID,917.508,VALID,0,VALID,96.8021,VALID,0,VALID,19.3503,VALID,164,VALID,0.171094,
2009-11-30, 02:58:04,VALID,917.501,VALID,0,VALID,96.7945,VALID,0,VALID,19.3113,VALID,164,VALID,0,
2009-11-30, 02:59:04,VALID,917.513,VALID,0,VALID,96.8098,VALID,0,VALID,19.2918,VALID,164,VALID,0,
2009-11-30, 03:00:04,VALID,917.508,VALID,0,VALID,96.8403,VALID,0,VALID,19.2723,VALID,164,VALID,0,
2009-11-30, 03:01:04,VALID,917.489,VALID,0,VALID,96.8936,VALID,0,VALID,19.2723,VALID,164,VALID,0,
2009-11-30, 03:02:04,VALID,917.483,VALID,0,VALID,96.886,VALID,0,VALID,19.2528,VALID,164,VALID,0.00273437,
2009-11-30, 03:03:04,VALID,917.461,VALID,0,VALID,96.9241,VALID,0,VALID,19.2528,VALID,164,VALID,0.303516,
2009-11-30, 03:04:04,VALID,917.453,VALID,0,VALID,96.9317,VALID,0,VALID,19.2528,VALID,164,VALID,0.282031,
2009-11-30, 03:05:04,VALID,917.439,VALID,0,VALID,96.9012,VALID,0,VALID,19.2334,VALID,164,VALID,0.298438,
2009-11-30, 03:06:04,VALID,917.408,VALID,0,VALID,96.8936,VALID,0,VALID,19.2139,VALID,164,VALID,0.436719,
2009-11-30, 03:07:04,VALID,917.393,VALID,0,VALID,96.8479,VALID,0,VALID,19.1944,VALID,164,VALID,0.877734,
2009-11-30, 03:08:04,VALID,917.388,VALID,0,VALID,96.8174,VALID,0,VALID,19.1554,VALID,164,VALID,0.672266,
2009-11-30, 03:09:04,VALID,917.372,VALID,0,VALID,96.8326,VALID,0,VALID,19.1554,VALID,164,VALID,0.610937,
2009-11-30, 03:10:04,VALID,917.365,VALID,0,VALID,96.8784,VALID,0,VALID,19.1164,VALID,164,VALID,0.470313,
2009-11-30, 03:11:04,VALID,917.335,VALID,0,VALID,96.9089,VALID,0,VALID,19.1164,VALID,164,VALID,0.601172,
2009-11-30, 03:12:04,VALID,917.35,VALID,0,VALID,96.9394,VALID,0,VALID,19.0969,VALID,164,VALID,0.70625,
2009-11-30, 03:13:04,VALID,917.325,VALID,0,VALID,96.9698,VALID,0,VALID,19.0969,VALID,164,VALID,0.961328,
2009-11-30, 03:14:04,VALID,917.306,VALID,0,VALID,96.9775,VALID,0,VALID,19.0969,VALID,164,VALID,0.661328,
2009-11-30, 03:15:04,VALID,917.307,VALID,0,VALID,96.9851,VALID,0,VALID,19.0969,VALID,164,VALID,0.494531,
2009-11-30, 03:16:04,VALID,917.262,VALID,0,VALID,97.008,VALID,0,VALID,19.0969,VALID,164,VALID,0.266406,
2009-11-30, 03:17:04,VALID,917.249,VALID,0,VALID,96.9775,VALID,0,VALID,19.1164,VALID,164,VALID,0.00585938,
2009-11-30, 03:18:04,VALID,917.251,VALID,0,VALID,96.947,VALID,0,VALID,19.0969,VALID,164,VALID,0.446875,
2009-11-30, 03:19:04,VALID,917.229,VALID,0,VALID,96.9546,VALID,0,VALID,19.1164,VALID,164,VALID,0.528125,
2009-11-30, 03:20:04,VALID,917.212,VALID,0,VALID,96.9317,VALID,0,VALID,19.1164,VALID,164,VALID,0.528125,
2009-11-30, 03:21:04,VALID,917.23,VALID,0,VALID,96.9165,VALID,0,VALID,19.1164,VALID,164,VALID,0.347266,
2009-11-30, 03:22:04,VALID,917.176,VALID,0,VALID,96.8936,VALID,0,VALID,19.1164,VALID,164,VALID,0.382031,
2009-11-30, 03:23:04,VALID,917.196,VALID,0,VALID,96.9241,VALID,0,VALID,19.1164,VALID,164,VALID,0.478516,
2009-11-30, 03:24:04,VALID,917.155,VALID,0,VALID,96.9317,VALID,0,VALID,19.1373,VALID,164,VALID,0.416797,
2009-11-30, 03:25:04,VALID,917.185,VALID,0,VALID,96.9546,VALID,0,VALID,19.1164,VALID,164,VALID,0.370703,
2009-11-30, 03:26:04,VALID,917.165,VALID,0,VALID,96.947,VALID,0,VALID,19.1359,VALID,164,VALID,0.0234375,
2009-11-30, 03:27:04,VALID,917.134,VALID,0,VALID,96.9165,VALID,0,VALID,19.1164,VALID,164,VALID,0,
2009-11-30, 03:28:04,VALID,917.117,VALID,0,VALID,96.8631,VALID,0,VALID,19.1359,VALID,164,VALID,0,
2009-11-30, 03:29:04,VALID,917.144,VALID,0,VALID,96.8098,VALID,0,VALID,19.1164,VALID,164,VALID,0,
2009-11-30, 03:30:04,VALID,917.128,VALID,0,VALID,96.7869,VALID,0,VALID,19.0969,VALID,164,VALID,0,
2009-11-30, 03:31:04,VALID,917.122,VALID,0,VALID,96.7793,VALID,0,VALID,19.0774,VALID,164,VALID,0.391016,
2009-11-30, 03:32:04,VALID,917.085,VALID,0,VALID,96.7411,VALID,0,VALID,19.0579,VALID,164,VALID,0.520312,
2009-11-30, 03:33:04,VALID,917.101,VALID,0,VALID,96.7335,VALID,0,VALID,19.0384,VALID,164,VALID,0.701172,
2009-11-30, 03:34:04,VALID,917.102,VALID,0,VALID,96.7335,VALID,0,VALID,19.0189,VALID,164,VALID,0.869922,
2009-11-30, 03:35:04,VALID,917.102,VALID,0,VALID,96.7335,VALID,0,VALID,19.0189,VALID,164,VALID,0.810547,
2009-11-30, 03:36:04,VALID,917.091,VALID,0,VALID,96.7488,VALID,0,VALID,19.0398,VALID,164,VALID,0.766016,
2009-11-30, 03:37:04,VALID,917.094,VALID,0,VALID,96.6725,VALID,0,VALID,19.0189,VALID,164,VALID,0.504297,
2009-11-30, 03:38:04,VALID,917.076,VALID,0,VALID,96.6802,VALID,0,VALID,18.9994,VALID,164,VALID,0.881641,
2009-11-30, 03:39:04,VALID,917.066,VALID,0,VALID,96.6802,VALID,0,VALID,19.0189,VALID,163,VALID,1.0125,
2009-11-30, 03:40:04,VALID,917.061,VALID,0,VALID,96.6192,VALID,0,VALID,18.9994,VALID,163,VALID,0.921875,
2009-11-30, 03:41:04,VALID,917.045,VALID,0,VALID,96.642,VALID,0,VALID,18.9799,VALID,163,VALID,0.720312,
2009-11-30, 03:42:04,VALID,917.019,VALID,0,VALID,96.6497,VALID,0,VALID,18.9799,VALID,163,VALID,0.91875,
2009-11-30, 03:43:04,VALID,917.001,VALID,0,VALID,96.7107,VALID,0,VALID,18.9994,VALID,163,VALID,0.572266,